EW7067 Weather Reports


Display with metric or nautical units.
time (UTC)temp
F
wind
direction
speed
MPH
gust
MPH
rain 1hr
in
rain 24hr
in
rain mn
in
humidity
%
barometer
mb
20210929013210 65 187 0.0 2.0 0.00 0.00 0.00 94 1009.6
20210929012708 65 187 0.0 1.0 0.00 0.00 0.00 94 1009.5
20210929012210 65 187 0.0 1.0 0.00 0.00 0.00 93 1009.4
20210929011710 66 187 0.0 1.0 0.00 0.00 0.00 93 1009.4
20210929011214 66 187 0.0 1.0 0.00 0.00 0.00 93 1009.5
20210929010708 66 187 0.0 1.0 0.00 0.00 0.00 93 1009.4
20210929010210 66 187 0.0 1.0 0.00 0.00 0.00 93 1009.5
20210929005704 66 187 0.0 2.0 0.00 0.00 0.00 93 1009.5
20210929005206 66 187 0.0 2.0 0.00 0.00 0.00 93 1009.5
20210929004705 66 187 0.0 2.0 0.00 0.00 0.00 92 1009.5
20210929004205 67 187 0.0 0.0 0.00 0.00 0.00 90 1009.5
20210929003705 67 187 0.0 1.0 0.00 0.00 0.00 90 1009.4
20210929003205 67 187 0.0 1.0 0.00 0.00 0.00 89 1009.3
20210929002705 68 187 0.0 1.0 0.00 0.00 0.00 88 1009.2
20210929002205 68 187 0.0 1.0 0.00 0.00 0.00 88 1009.2
20210929001706 68 187 0.0 1.0 0.00 0.00 0.00 88 1009.2
20210929001205 68 187 1.0 2.0 0.00 0.00 0.00 88 1009.1
20210929000704 68 187 1.0 2.0 0.00 0.00 0.00 87 1009.1
20210929000206 69 187 0.0 0.0 0.00 0.00 0.00 85 1009.1
20210928235704 69 187 0.0 1.0 0.00 0.00 0.00 85 1009.0
20210928235205 70 187 0.0 1.0 0.00 0.00 0.00 85 1009.0
20210928234705 70 187 0.0 1.0 0.00 0.00 0.00 84 1009.0
20210928234204 70 187 0.0 1.0 0.00 0.00 0.00 83 1008.9
20210928233704 71 187 0.0 1.0 0.00 0.00 0.00 81 1009.0
20210928233202 71 187 0.0 0.0 0.00 0.00 0.00 81 1008.9
20210928232655 72 187 0.0 1.0 0.00 0.00 0.00 80 1008.9
20210928232151 73 187 0.0 1.0 0.00 0.00 0.00 80 1008.9
20210928231644 73 187 0.0 1.0 0.00 0.00 0.00 78 1009.0
20210928231138 74 187 1.0 2.0 0.00 0.00 0.00 77 1009.0
20210928230633 74 187 1.0 2.0 0.00 0.00 0.00 76 1008.9
20210928230126 75 187 0.0 2.0 0.00 0.00 0.00 74 1008.9
20210928225621 75 187 1.0 2.0 0.00 0.00 0.00 74 1008.8
20210928225115 76 187 1.0 2.0 0.00 0.00 0.00 72 1008.7
20210928224609 77 194 1.0 2.0 0.00 0.00 0.00 71 1008.7
20210928224103 78 130 0.0 2.0 0.00 0.00 0.00 69 1008.7
20210928223556 79 125 0.0 1.0 0.00 0.00 0.00 68 1008.6
20210928223052 80 125 0.0 2.0 0.00 0.00 0.00 67 1008.6
20210928222546 81 125 0.0 2.0 0.00 0.00 0.00 64 1008.6
20210928222047 82 294 0.0 1.0 0.00 0.00 0.00 61 1008.6
20210928221548 83 294 0.0 1.0 0.00 0.00 0.00 57 1008.5
20210928221047 84 294 0.0 1.0 0.00 0.00 0.00 56 1008.5
20210928220547 85 294 0.0 1.0 0.00 0.00 0.00 55 1008.4
20210928220047 87 294 0.0 1.0 0.00 0.00 0.00 54 1008.3
20210928215546 87 294 0.0 1.0 0.00 0.00 0.00 54 1008.3
20210928215044 86 294 0.0 2.0 0.00 0.00 0.00 53 1008.3
20210928214542 86 294 0.0 2.0 0.00 0.00 0.00 53 1008.2
20210928214040 86 294 0.0 2.0 0.00 0.00 0.00 54 1008.2
20210928213541 86 294 0.0 2.0 0.00 0.00 0.00 55 1008.2
20210928213040 85 294 1.0 2.0 0.00 0.00 0.00 54 1008.3
20210928212540 86 294 0.0 2.0 0.00 0.00 0.00 51 1008.3
20210928212036 86 294 0.0 3.0 0.00 0.00 0.00 51 1008.3
20210928211538 86 294 1.0 4.0 0.00 0.00 0.00 54 1008.3
20210928211038 87 294 1.0 4.0 0.00 0.00 0.00 54 1008.3
20210928210535 87 299 1.0 3.0 0.00 0.00 0.00 49 1008.3
20210928210034 88 299 1.0 3.0 0.00 0.00 0.00 54 1008.3
20210928205534 88 299 1.0 3.0 0.00 0.00 0.00 48 1008.3
20210928205026 88 299 1.0 3.0 0.00 0.00 0.00 48 1008.3
20210928204519 87 299 2.0 5.0 0.00 0.00 0.00 48 1008.2
20210928204015 87 299 2.0 5.0 0.00 0.00 0.00 47 1008.3
20210928203508 87 299 2.0 5.0 0.00 0.00 0.00 47 1008.3
20210928203003 87 291 2.0 5.0 0.00 0.00 0.00 47 1008.3
20210928202456 86 286 3.0 8.0 0.00 0.00 0.00 50 1008.4
20210928201950 86 286 4.0 9.0 0.00 0.00 0.00 48 1008.3
20210928201445 86 303 3.0 9.0 0.00 0.00 0.00 49 1008.3
20210928200940 86 297 3.0 5.0 0.00 0.00 0.00 53 1008.4
20210928200432 86 297 3.0 9.0 0.00 0.00 0.00 53 1008.4
20210928195928 85 298 3.0 9.0 0.00 0.00 0.00 51 1008.3
20210928195422 86 288 2.0 9.0 0.00 0.00 0.00 49 1008.3
20210928194914 86 258 2.0 6.0 0.00 0.00 0.00 50 1008.4
20210928194410 86 186 2.0 6.0 0.00 0.00 0.00 51 1008.4
20210928193903 85 240 2.0 7.0 0.00 0.00 0.00 53 1008.4
20210928193355 85 213 2.0 8.0 0.00 0.00 0.00 55 1008.4
20210928192851 85 205 3.0 9.0 0.00 0.00 0.00 53 1008.4
20210928192344 86 311 3.0 9.0 0.00 0.00 0.00 54 1008.4
20210928191839 86 266 4.0 11.0 0.00 0.00 0.00 50 1008.4
20210928191332 86 313 4.0 11.0 0.00 0.00 0.00 51 1008.4
20210928190826 85 279 2.0 7.0 0.00 0.00 0.00 56 1008.5
20210928190320 84 294 2.0 9.0 0.00 0.00 0.00 55 1008.5
20210928185816 84 267 3.0 9.0 0.00 0.00 0.00 54 1008.4
20210928185309 85 225 3.0 7.0 0.00 0.00 0.00 53 1008.6
20210928184803 85 169 3.0 7.0 0.00 0.00 0.00 53 1008.8
20210928184258 85 267 3.0 7.0 0.00 0.00 0.00 54 1008.9
20210928183752 84 161 3.0 7.0 0.00 0.00 0.00 50 1009.1
20210928183245 84 242 3.0 7.0 0.00 0.00 0.00 51 1009.2
20210928182737 85 240 3.0 7.0 0.00 0.00 0.00 51 1009.3
20210928182233 85 175 2.0 7.0 0.00 0.00 0.00 52 1009.2
20210928181728 85 209 2.0 6.0 0.00 0.00 0.00 53 1009.4
20210928181221 85 234 2.0 7.0 0.00 0.00 0.00 52 1009.6
20210928180714 85 276 2.0 7.0 0.00 0.00 0.00 56 1009.5
20210928180208 84 165 3.0 8.0 0.00 0.00 0.00 55 1009.6
20210928175703 84 267 3.0 8.0 0.00 0.00 0.00 58 1009.7
20210928175157 84 211 3.0 8.0 0.00 0.00 0.00 54 1009.7
20210928174651 84 142 3.0 7.0 0.00 0.00 0.00 56 1009.6
20210928174148 84 202 2.0 8.0 0.00 0.00 0.00 56 1009.8
20210928173649 84 236 2.0 8.0 0.00 0.00 0.00 58 1009.9
20210928173146 84 244 2.0 7.0 0.00 0.00 0.00 59 1009.9
20210928172647 84 300 3.0 10.0 0.00 0.00 0.00 59 1009.9
20210928172149 83 286 3.0 10.0 0.00 0.00 0.00 57 1010.0
20210928171647 84 117 2.0 7.0 0.00 0.00 0.00 59 1010.0
20210928171147 83 38 2.0 7.0 0.00 0.00 0.00 58 1010.1
20210928170647 83 244 2.0 7.0 0.00 0.00 0.00 57 1010.2
20210928170145 83 259 3.0 7.0 0.00 0.00 0.00 57 1010.3
20210928165645 84 205 3.0 7.0 0.00 0.00 0.00 56 1010.3
20210928165146 84 311 2.0 10.0 0.00 0.00 0.00 55 1010.3
20210928164645 83 314 3.0 10.0 0.00 0.00 0.00 57 1010.3
20210928164142 83 284 2.0 9.0 0.00 0.00 0.00 56 1010.4
20210928163640 83 190 2.0 8.0 0.00 0.00 0.00 64 1010.4
20210928163140 83 301 3.0 8.0 0.00 0.00 0.00 57 1010.4
20210928162640 83 188 3.0 7.0 0.00 0.00 0.00 57 1010.4
20210928162141 83 306 3.0 8.0 0.00 0.00 0.00 58 1010.5
20210928161642 82 304 2.0 8.0 0.00 0.00 0.00 58 1010.6
20210928161137 82 319 3.0 8.0 0.00 0.00 0.00 57 1010.7
20210928160631 82 321 3.0 10.0 0.00 0.00 0.00 60 1010.8
20210928160125 81 337 5.0 11.0 0.00 0.00 0.00 58 1010.8
20210928155618 80 288 5.0 11.0 0.00 0.00 0.00 59 1010.9
20210928155112 80 260 4.0 11.0 0.00 0.00 0.00 60 1011.2
20210928154605 81 281 4.0 11.0 0.00 0.00 0.00 60 1011.2
20210928154059 80 311 3.0 9.0 0.00 0.00 0.00 61 1011.3
20210928153554 80 302 3.0 8.0 0.00 0.00 0.00 60 1011.3
20210928153048 80 19 5.0 9.0 0.00 0.00 0.00 60 1011.4
20210928152543 80 311 5.0 10.0 0.00 0.00 0.00 62 1011.3
20210928152036 79 287 5.0 10.0 0.00 0.00 0.00 61 1011.4
20210928151529 79 340 4.0 9.0 0.00 0.00 0.00 61 1011.5
20210928151029 79 315 3.0 8.0 0.00 0.00 0.00 61 1011.5
20210928150529 78 304 3.0 8.0 0.00 0.00 0.00 64 1011.6
20210928150029 78 348 5.0 10.0 0.00 0.00 0.00 63 1011.6
20210928145527 77 5 5.0 11.0 0.00 0.00 0.00 62 1011.8
20210928145029 77 298 5.0 11.0 0.00 0.00 0.00 65 1011.8
20210928144528 77 319 5.0 11.0 0.00 0.00 0.00 67 1011.7
20210928144027 76 335 4.0 11.0 0.00 0.00 0.00 67 1011.8
20210928143525 75 293 2.0 8.0 0.00 0.00 0.00 75 1011.7
20210928143026 75 342 1.0 4.0 0.00 0.00 0.00 75 1011.7
20210928142527 74 342 1.0 4.0 0.00 0.00 0.00 76 1011.8
20210928142026 74 342 2.0 4.0 0.00 0.00 0.00 77 1011.7
20210928141525 73 342 1.0 4.0 0.00 0.00 0.00 78 1011.7
20210928141027 72 342 0.0 4.0 0.00 0.00 0.00 82 1011.7
20210928140523 72 31 0.0 1.0 0.00 0.00 0.00 83 1011.8
20210928140024 71 31 0.0 1.0 0.00 0.00 0.00 87 1011.7
20210928135525 70 31 0.0 1.0 0.00 0.00 0.00 87 1011.7
20210928135025 69 31 0.0 1.0 0.00 0.00 0.00 90 1011.7
20210928134525 68 31 0.0 2.0 0.00 0.00 0.00 93 1011.7
20210928134024 67 31 0.0 2.0 0.00 0.00 0.00 93 1011.7
20210928133524 66 31 0.0 1.0 0.00 0.00 0.00 95 1011.7
20210928133024 65 31 0.0 1.0 0.00 0.00 0.00 96 1011.7
20210928132525 64 31 0.0 2.0 0.00 0.00 0.00 95 1011.7
20210928132023 62 31 0.0 2.0 0.00 0.00 0.00 94 1011.8
20210928131527 62 31 0.0 1.0 0.00 0.00 0.00 93 1011.8
20210928131025 61 31 0.0 1.0 0.00 0.00 0.00 93 1011.8
20210928130526 60 31 0.0 1.0 0.00 0.00 0.00 93 1011.8
20210928130027 59 31 0.0 0.0 0.00 0.00 0.00 93 1011.7
20210928125523 58 31 0.0 1.0 0.00 0.00 0.00 93 1011.8
20210928125023 57 31 0.0 1.0 0.00 0.00 0.00 93 1011.7
20210928124523 56 31 0.0 0.0 0.00 0.00 0.00 93 1011.7
20210928124024 55 31 0.0 0.0 0.00 0.00 0.00 93 1011.7
20210928123523 54 31 0.0 0.0 0.00 0.00 0.00 93 1011.6
20210928123023 53 31 0.0 0.0 0.00 0.00 0.00 94 1011.6
20210928122524 52 31 0.0 0.0 0.00 0.00 0.00 94 1011.6
20210928122024 52 31 0.0 0.0 0.00 0.00 0.00 94 1011.6
20210928121524 52 31 0.0 0.0 0.00 0.00 0.00 94 1011.6
20210928121025 51 31 0.0 1.0 0.00 0.00 0.00 94 1011.6
20210928120523 51 31 0.0 1.0 0.00 0.00 0.00 94 1011.6
20210928120022 51 31 0.0 4.0 0.00 0.00 0.00 94 1011.5
20210928115520 51 31 1.0 4.0 0.00 0.00 0.00 94 1011.5
20210928115017 51 31 1.0 3.0 0.00 0.00 0.00 94 1011.5
20210928114510 51 30 1.0 3.0 0.00 0.00 0.00 94 1011.4
20210928114005 51 31 0.0 2.0 0.00 0.00 0.00 94 1011.3
20210928113458 51 30 0.0 1.0 0.00 0.00 0.00 94 1011.4
20210928112953 51 31 0.0 0.0 0.00 0.00 0.00 94 1011.4
20210928112446 51 30 0.0 0.0 0.00 0.00 0.00 94 1011.4
20210928111939 51 31 0.0 1.0 0.00 0.00 0.00 94 1011.4
20210928111437 51 30 0.0 1.0 0.00 0.00 0.00 94 1011.3
20210928110938 51 31 0.0 0.0 0.00 0.00 0.00 94 1011.3
20210928110437 51 31 0.0 0.0 0.00 0.00 0.00 94 1011.3
20210928105940 51 30 0.0 1.0 0.00 0.00 0.00 94 1011.3
20210928105438 51 30 0.0 1.0 0.00 0.00 0.00 95 1011.2
20210928104938 51 30 0.0 1.0 0.00 0.00 0.00 94 1011.1
20210928104435 51 30 0.0 1.0 0.00 0.00 0.00 94 1011.1
20210928103937 51 30 0.0 0.0 0.00 0.00 0.00 94 1010.9
20210928103435 52 31 0.0 1.0 0.00 0.00 0.00 94 1011.1
20210928102936 52 31 0.0 1.0 0.00 0.00 0.00 94 1010.9
20210928102436 51 30 0.0 0.0 0.00 0.00 0.00 94 1010.7
20210928101936 51 30 0.0 1.0 0.00 0.00 0.00 94 1010.8
20210928101437 52 30 0.0 1.0 0.00 0.00 0.00 94 1010.8
20210928100934 52 30 0.0 0.0 0.00 0.00 0.00 94 1010.8
20210928100433 53 31 0.0 1.0 0.00 0.00 0.00 94 1010.8
20210928095929 54 31 0.0 1.0 0.00 0.00 0.00 94 1010.6
20210928095429 54 30 1.0 2.0 0.00 0.00 0.00 94 1010.5
20210928094930 53 31 1.0 2.0 0.00 0.00 0.00 94 1010.6
20210928094425 53 31 1.0 2.0 0.00 0.00 0.00 94 1010.6
20210928093919 52 30 0.0 2.0 0.00 0.00 0.00 94 1010.6
20210928093413 52 30 0.0 0.0 0.00 0.00 0.00 94 1010.6
20210928092907 53 30 0.0 0.0 0.00 0.00 0.00 94 1010.5
20210928092401 53 30 0.0 1.0 0.00 0.00 0.00 94 1010.5
20210928091855 52 30 0.0 1.0 0.00 0.00 0.00 94 1010.4
20210928091349 52 30 0.0 1.0 0.00 0.00 0.00 94 1010.4
20210928090844 52 30 0.0 1.0 0.00 0.00 0.00 94 1010.5
20210928090335 52 30 0.0 1.0 0.00 0.00 0.00 95 1010.5
20210928085831 52 30 0.0 0.0 0.00 0.00 0.00 95 1010.5
20210928085325 52 30 0.0 1.0 0.00 0.00 0.00 95 1010.5
20210928084819 52 30 0.0 1.0 0.00 0.00 0.00 94 1010.6
20210928084313 52 30 0.0 0.0 0.00 0.00 0.00 95 1010.5
20210928083808 52 30 0.0 0.0 0.00 0.00 0.00 95 1010.5
20210928083302 52 31 0.0 1.0 0.00 0.00 0.00 95 1010.5
20210928082756 53 30 0.0 1.0 0.00 0.00 0.00 94 1010.5
20210928082251 53 30 0.0 1.0 0.00 0.00 0.00 94 1010.5
20210928081743 53 30 0.0 1.0 0.00 0.00 0.00 94 1010.5
20210928081236 53 30 0.0 1.0 0.00 0.00 0.00 94 1010.6
20210928080732 53 30 0.0 0.0 0.00 0.00 0.00 94 1010.7
20210928080226 53 30 0.0 0.0 0.00 0.00 0.00 94 1010.8
20210928075719 53 31 0.0 0.0 0.00 0.00 0.00 95 1010.7
20210928075214 53 30 0.0 0.0 0.00 0.00 0.00 94 1010.9
20210928074707 53 30 0.0 0.0 0.00 0.00 0.00 94 1010.9
20210928074202 53 30 0.0 0.0 0.00 0.00 0.00 95 1011.1
20210928073655 53 30 0.0 0.0 0.00 0.00 0.00 95 1011.1
20210928073149 53 30 0.0 0.0 0.00 0.00 0.00 94 1011.2
20210928072643 53 30 0.0 0.0 0.00 0.00 0.00 95 1011.1
20210928072138 53 30 0.0 1.0 0.00 0.00 0.00 95 1011.1
20210928071632 53 30 0.0 1.0 0.00 0.00 0.00 95 1011.2
20210928071125 53 30 0.0 0.0 0.00 0.00 0.00 95 1011.2
20210928070620 53 30 0.0 0.0 0.00 0.00 0.00 95 1011.4
20210928070113 54 30 0.0 0.0 0.00 0.00 0.00 95 1011.4
20210928065606 54 30 0.0 1.0 0.00 0.00 0.00 95 1011.5
20210928065101 54 30 0.0 1.0 0.00 0.00 0.00 95 1011.5
20210928064556 54 30 0.0 0.0 0.00 0.00 0.00 95 1011.6
20210928064050 55 30 0.0 0.0 0.00 0.00 0.00 95 1011.5
20210928063546 55 30 0.0 1.0 0.00 0.00 0.00 94 1011.5
20210928063037 55 30 0.0 1.0 0.00 0.00 0.00 94 1011.5
20210928062531 55 30 0.0 1.0 0.00 0.00 0.00 95 1011.7
20210928062025 54 30 0.0 1.0 0.00 0.00 0.00 95 1011.8
20210928061520 54 30 0.0 0.0 0.00 0.00 0.00 95 1011.8
20210928061013 54 30 0.0 1.0 0.00 0.00 0.00 95 1011.9
20210928060507 55 30 0.0 1.0 0.00 0.00 0.00 95 1011.8
20210928060001 55 30 0.0 1.0 0.00 0.00 0.00 95 1011.8
20210928055455 55 30 0.0 0.0 0.00 0.00 0.00 95 1011.7
20210928054949 56 30 0.0 0.0 0.00 0.00 0.00 94 1011.7
20210928054442 56 30 0.0 0.0 0.00 0.00 0.00 95 1011.8
20210928053938 56 30 0.0 1.0 0.00 0.00 0.00 95 1011.8
20210928053432 56 30 0.0 1.0 0.00 0.00 0.00 95 1011.9
20210928052925 56 30 0.0 0.0 0.00 0.00 0.00 95 1012.0
20210928052423 55 30 0.0 0.0 0.00 0.00 0.00 95 1012.1
20210928051914 55 30 0.0 0.0 0.00 0.00 0.00 95 1012.1
20210928051408 55 30 0.0 0.0 0.00 0.00 0.00 95 1012.1
20210928050901 55 30 0.0 0.0 0.00 0.00 0.00 95 1012.1
20210928050355 55 30 0.0 0.0 0.00 0.00 0.00 95 1012.1
20210928045850 55 30 0.0 0.0 0.00 0.00 0.00 95 1012.0
20210928045344 56 30 0.0 0.0 0.00 0.00 0.00 95 1012.1
20210928044842 56 30 0.0 0.0 0.00 0.00 0.00 95 1012.2
20210928044331 56 30 0.0 0.0 0.00 0.00 0.00 95 1012.2
20210928043825 56 30 0.0 0.0 0.00 0.00 0.00 95 1012.2
20210928043320 56 30 0.0 0.0 0.00 0.00 0.00 95 1012.3
20210928042813 56 30 0.0 1.0 0.00 0.00 0.00 95 1012.3
20210928042306 56 30 0.0 1.0 0.00 0.00 0.00 95 1012.4
20210928041801 56 30 0.0 0.0 0.00 0.00 0.00 95 1012.3
20210928041255 56 30 0.0 0.0 0.00 0.00 0.00 95 1012.4
20210928040749 56 30 0.0 0.0 0.00 0.00 0.00 95 1012.4
20210928040245 57 30 0.0 0.0 0.00 0.00 0.00 95 1012.4
20210928035737 57 30 0.0 0.0 0.00 0.00 0.00 95 1012.4
20210928035230 57 30 0.0 0.0 0.00 0.00 0.00 95 1012.4
20210928034725 57 30 0.0 1.0 0.00 0.00 0.00 95 1012.5
20210928034220 57 30 0.0 1.0 0.00 0.00 0.00 95 1012.5
20210928033713 57 30 0.0 0.0 0.00 0.00 0.00 95 1012.5
20210928033207 57 30 0.0 0.0 0.00 0.00 0.00 95 1012.5
20210928032701 58 30 0.0 0.0 0.00 0.00 0.00 95 1012.5
20210928032155 58 30 0.0 0.0 0.00 0.00 0.00 95 1012.5
20210928031650 58 30 0.0 0.0 0.00 0.00 0.00 95 1012.4
20210928031143 58 30 0.0 0.0 0.00 0.00 0.00 95 1012.5
20210928030636 58 30 0.0 0.0 0.00 0.00 0.00 95 1012.5
20210928030131 58 30 0.0 0.0 0.00 0.00 0.00 95 1012.4
20210928025625 58 30 0.0 0.0 0.00 0.00 0.00 95 1012.3
20210928025119 58 30 0.0 0.0 0.00 0.00 0.00 95 1012.4
20210928024613 58 30 0.0 0.0 0.00 0.00 0.00 95 1012.4
20210928024107 58 30 0.0 0.0 0.00 0.00 0.00 95 1012.4
20210928023602 59 30 0.0 0.0 0.00 0.00 0.00 95 1012.4
20210928023057 59 30 0.0 0.0 0.00 0.00 0.00 95 1012.4
20210928022548 59 30 0.0 0.0 0.00 0.00 0.00 95 1012.4
20210928022043 59 30 0.0 0.0 0.00 0.00 0.00 95 1012.4
20210928021539 59 30 0.0 0.0 0.00 0.00 0.00 95 1012.5
20210928021032 59 30 0.0 0.0 0.00 0.00 0.00 95 1012.5
20210928020526 60 30 0.0 0.0 0.00 0.00 0.00 95 1012.5
20210928020020 60 30 0.0 0.0 0.00 0.00 0.00 94 1012.5
20210928015513 60 30 0.0 0.0 0.00 0.00 0.00 94 1012.5
20210928015009 60 30 0.0 0.0 0.00 0.00 0.00 94 1012.4
20210928014503 60 30 0.0 0.0 0.00 0.00 0.00 94 1012.5
20210928013955 60 30 0.0 0.0 0.00 0.00 0.00 93 1012.4